Location: Biltmore Gardens
(41.6070°N, 83.4666°W)
Time: 15:19:45
(UTC+00:00)

Cosmos 724 - Pass Details

Date: 14 July 2020
Orbit: 858 x 936 km, 65.6° (Epoch: 13 August)

Event Time Altitude Azimuth Distance (km) Brightness Sun altitude
Exits shadow 06:08:13 76° 213° (SSW) 889 4.1 -26.5°
Maximum altitude 06:08:43 89° 304° (NW) 866 4.1 -26.4°
Drops below altitude 10° 06:14:33 10° 32° (NNE) 2,519 7.5 -26.3°
Sets 06:17:03 0° 32° (NNE) 3,468 8.5 -26.2°
